This is the latest recevied weather packets stored in our database for station/object HB9ZRH-10. If no packets are shown the sender has not sent any weather packets the latest 10 day(s).
| Time | Temp. | Humidity | Pressure | Rain* | Wind** | Luminosity | Snow |
|---|---|---|---|---|---|---|---|
| 1777765848 | 20.56° C | 41% | 1017.9 hPa | - | - | - | - |
| 1777765548 | 19.44° C | 42% | 1018 hPa | - | - | - | - |
| 1777765248 | 19.44° C | 42% | 1018 hPa | - | - | - | - |
| 1777764948 | 20° C | 41% | 1018 hPa | - | - | - | - |
| 1777764648 | 20.56° C | 41% | 1018 hPa | - | - | - | - |
| 1777764348 | 19.44° C | 42% | 1018.1 hPa | - | - | - | - |
| 1777764048 | 18.33° C | 42% | 1018.1 hPa | - | - | - | - |
| 1777763748 | 18.89° C | 42% | 1018.1 hPa | - | - | - | - |
| 1777763448 | 19.44° C | 41% | 1018 hPa | - | - | - | - |
| 1777763148 | 19.44° C | 41% | 1018.2 hPa | - | - | - | - |
| 1777762848 | 20° C | 41% | 1018.2 hPa | - | - | - | - |
| 1777762548 | 18.89° C | 41% | 1018.3 hPa | - | - | - | - |
| 1777762248 | 18.33° C | 41% | 1018.3 hPa | - | - | - | - |
| 1777761948 | 18.33° C | 41% | 1018.2 hPa | - | - | - | - |
| 1777761648 | 18.33° C | 40% | 1018.2 hPa | - | - | - | - |
| 1777761348 | 18.33° C | 40% | 1018.2 hPa | - | - | - | - |
| 1777761048 | 18.33° C | 40% | 1018.2 hPa | - | - | - | - |
| 1777760748 | 18.33° C | 40% | 1018.2 hPa | - | - | - | - |
| 1777760448 | 18.33° C | 40% | 1018.2 hPa | - | - | - | - |
| 1777760148 | 18.89° C | 40% | 1018.2 hPa | - | - | - | - |
| 1777759848 | 18.89° C | 39% | 1018.2 hPa | - | - | - | - |
| 1777759548 | 18.89° C | 39% | 1018.2 hPa | - | - | - | - |
| 1777759248 | 18.89° C | 39% | 1018.2 hPa | - | - | - | - |
| 1777758948 | 18.89° C | 39% | 1018.2 hPa | - | - | - | - |
| 1777758648 | 19.44° C | 39% | 1018.2 hPa | - | - | - | - |
* Rain since midnight (hover to see other rain measurements)
** Current wind speed in m/s (hover to see current wind gust speed)